1497326400.87,2712,19.06,73680.8,1.27,0.33,0.43,0,*48
1497326402.06,2713,19.06,73682.0,1.27,0.17,0.05,0,*7D
1497326403.24,2714,19.06,73686.3,1.27,-0.15,-0.15,0,*49
1497326404.43,2715,19.06,73694.0,1.25,-0.07,-0.07,0,*4A
1497326405.61,2716,19.06,73690.5,1.25,0.01,-0.07,0,*62
1497326406.79,2717,19.06,73690.0,1.23,-0.19,-0.19,0,*4E
1497326407.97,2718,19.06,73680.3,1.23,-0.29,-0.33,0,*4A
1497326409.15,2719,19.06,73668.5,1.23,-0.57,-0.57,0,*40
1497326410.33,2720,19.06,73676.8,1.23,-0.45,-0.49,0,*46
1497326411.58,2721,19.06,73672.5,1.21,-0.27,-0.27,0,*49
1497326412.79,2722,19.06,73676.8,1.21,-0.15,-0.15,0,*4A
1497326413.98,2723,19.06,73674.8,1.17,-0.03,-0.07,0,*4A
1497326415.19,2724,19.06,73680.8,1.17,-0.15,-0.15,0,*49
1497326416.41,2725,19.06,73682.0,1.17,-0.15,-0.27,0,*49
1497326417.66,2726,19.06,73678.0,1.17,-0.27,-0.27,0,*4B
1497326418.89,2727,19.06,73674.5,1.13,-0.29,-0.23,0,*44
1497326420.08,2728,19.06,73676.0,1.15,-0.15,-0.15,0,*47
1497326421.31,2729,19.06,73686.8,1.13,-0.19,-0.23,0,*49
1497326422.52,2730,19.06,73678.5,1.13,-0.19,-0.19,0,*48
1497326423.74,2731,19.06,73686.3,1.13,-0.11,-0.19,0,*41
1497326424.97,2732,19.06,73676.3,1.15,-0.27,-0.27,0,*4C
1497326426.17,2733,19.06,73682.5,1.13,-0.33,-0.29,0,*40
1497326427.36,2734,19.06,73680.5,1.11,-0.41,-0.41,0,*4E
1497326428.54,2735,19.06,73668.8,1.11,-0.33,-0.33,0,*4F
1497326429.71,2736,19.06,73676.5,1.11,-0.29,-0.29,0,*4C
1497326430.92,2737,19.06,73668.3,1.11,-0.27,-0.19,0,*40
1497326432.1,2738,19.06,73678.0,1.11,-0.11,-0.19,0,*4A
1497326433.31,2739,19.06,73676.8,1.09,-0.37,-0.33,0,*4E
1497326434.48,2740,19.06,73678.0,1.11,-0.29,-0.29,0,*4D
1497326435.68,2741,19.06,73676.3,1.09,-0.49,-0.53,0,*4E
1497326436.95,2742,19.06,73646.8,1.07,-1.01,-1.05,0,*4C
1497326438.14,2743,19.06,73646.0,1.05,-1.17,-1.17,0,*4B
1497326439.41,2744,19.06,73638.8,1.07,-1.01,-1.05,0,*4A
1497326440.63,2745,19.06,73636.0,1.01,-0.93,-0.97,0,*4D
1497326441.81,2746,19.06,73634.8,1.01,-0.57,-0.61,0,*4F
1497326442.98,2747,19.06,73642.5,1.01,-0.61,-0.61,0,*4B
1497326444.16,2748,19.06,73640.8,1.01,-0.69,-0.73,0,*4F
1497326445.34,2749,19.06,73656.8,1.01,-0.81,-0.81,0,*45
1497326446.54,2750,19.06,73666.3,0.99,-0.45,-0.45,0,*7D
1497326447.79,2751,19.06,73664.5,0.99,-0.23,-0.23,0,*7C
1497326449.02,2752,19.06,73660.3,0.97,-0.27,-0.23,0,*75
1497326450.24,2753,19.06,73668.3,0.99,-0.15,-0.23,0,*7B
1497326451.44,2754,19.06,73664.8,0.99,-0.03,-0.03,0,*79
1497326452.68,2755,19.06,73668.5,0.99,0.21,0.21,0,*78
1497326453.91,2756,19.06,73670.8,0.99,0.37,0.25,0,*78
1497326455.15,2757,19.06,73672.3,0.99,0.41,0.37,0,*7B
1497326456.39,2758,19.06,73686.5,0.99,0.41,0.47,0,*73
1497326457.6,2759,19.06,73692.8,1.03,0.43,0.51,0,*45
1497326458.83,2760,19.06,73698.3,1.03,0.41,0.33,0,*49
1497326460.06,2761,19.06,73700.3,1.03,0.29,0.33,0,*46
1497326461.3,2762,19.06,73710.0,1.03,0.29,0.29,0,*4E
1497326462.49,2763,19.06,73696.3,1.03,-0.07,-0.07,0,*4F
1497326463.72,2764,19.06,73690.0,1.01,-0.23,-0.23,0,*4A
1497326464.92,2765,19.06,73692.8,1.03,-0.19,-0.19,0,*49
1497326466.13,2766,19.06,73688.8,1.03,-0.07,-0.11,0,*7D
1497326467.29,2767,19.06,73682.5,1.01,-0.07,-0.07,0,*49
1497326468.45,2768,19.06,73678.5,1.01,0.01,0.01,0,*46
1497326469.62,2769,19.06,73674.8,1.03,0.01,0.01,0,*45
1497326470.78,2770,19.06,73676.5,1.01,0.01,0.05,0,*4B
1497326471.93,2771,19.06,73678.3,1.01,0.01,0.01,0,*4E
1497326473.1,2772,19.06,73676.0,1.01,0.05,-0.07,0,*62
1497326474.28,2773,19.06,73672.5,1.01,-0.19,-0.19,0,*4C
1497326475.45,2774,19.06,73670.3,1.01,-0.33,-0.29,0,*40
1497326476.64,2775,19.06,73672.8,1.01,-0.11,-0.19,0,*42
1497326477.8,2776,19.06,73678.3,1.01,0.05,0.05,0,*49
1497326479.01,2777,19.06,73676.8,1.01,0.17,0.25,0,*49
1497326480.21,2778,19.06,73678.5,1.01,0.41,0.41,0,*47
1497326481.45,2779,19.06,73674.8,1.03,0.41,0.41,0,*44
1497326482.66,2780,19.06,73674.0,1.01,0.51,0.51,0,*40
1497326483.88,2781,19.06,73666.5,1.01,0.55,0.55,0,*41
1497326485.12,2782,19.06,73662.5,1.03,0.63,0.63,0,*40
1497326486.36,2783,19.06,73676.8,1.03,0.55,0.55,0,*41
1497326487.57,2784,19.06,73682.3,1.01,0.67,0.63,0,*40
1497326488.81,2785,19.06,73680.0,1.03,0.63,0.55,0,*42
1497326490.01,2786,19.06,73672.5,1.05,0.67,0.67,0,*42
1497326491.23,2787,19.06,73666.8,1.05,0.83,0.79,0,*46
1497326492.47,2788,19.06,73666.0,1.07,0.71,0.67,0,*49
1497326493.68,2789,19.06,73674.5,1.05,0.71,0.67,0,*4A
1497326494.89,2790,19.06,73684.5,1.05,0.71,0.67,0,*42
1497326496.09,2791,19.06,73694.3,1.05,0.33,0.33,0,*44
1497326497.33,2792,19.06,73706.8,1.07,0.37,0.37,0,*45
1497326498.55,2793,19.06,73696.0,1.07,0.17,0.09,0,*7B
1497326499.75,2794,19.06,73688.3,1.07,-0.07,-0.15,0,*70
1497326500.94,2795,19.06,73686.5,1.05,-0.15,-0.15,0,*40
1497326502.19,2796,19.06,73690.3,1.07,-0.27,-0.27,0,*41
1497326503.4,2797,19.06,73684.0,1.05,-0.27,-0.37,0,*43
1497326504.61,2798,19.06,73688.8,1.05,-0.27,-0.37,0,*4C
1497326505.83,2799,19.06,73692.5,1.03,-0.23,-0.33,0,*4B
1497326507.06,2800,19.06,73682.3,1.03,-0.23,-0.29,0,*4F
1497326508.26,2801,19.06,73676.8,1.03,-0.11,-0.07,0,*73
1497326509.43,2802,19.06,73674.0,1.03,0.01,0.01,0,*47
1497326510.64,2803,19.06,73670.5,1.03,0.05,0.13,0,*71
1497326511.87,2804,19.06,73678.0,1.03,0.13,0.17,0,*45
1497326513.03,2805,19.06,73680.5,1.01,0.01,0.05,0,*46
1497326514.19,2806,19.06,73674.5,1.01,0.05,0.01,0,*45
1497326515.37,2807,19.06,73664.3,1.01,0.13,0.05,0,*77
1497326516.61,2808,19.06,73660.3,1.03,0.13,0.13,0,*4D
1497326517.84,2809,19.06,73664.0,1.03,0.13,0.25,0,*49
1497326519.02,2810,19.06,73662.8,1.01,0.05,0.13,0,*71
1497326520.21,2811,19.06,73670.3,1.03,0.05,0.01,0,*41
1497326521.38,2812,19.06,73670.5,1.03,0.01,0.01,0,*46
1497326522.59,2813,19.06,73670.3,1.01,0.17,0.13,0,*41
1497326523.75,2814,19.06,73668.3,1.01,0.05,0.05,0,*42
1497326524.94,2815,19.06,73668.0,1.03,-0.07,-0.07,0,*41
1497326526.15,2816,19.06,73664.0,1.01,0.17,0.25,0,*41
1497326527.36,2817,19.06,73662.5,1.01,0.25,0.29,0,*4D
1497326528.54,2818,19.06,73668.0,1.01,0.13,0.01,0,*7D
1497326529.73,2819,19.06,73674.3,1.01,-0.11,-0.11,0,*4F
1497326530.89,2820,19.06,73668.0,1.01,0.01,0.05,0,*41
1497326532.06,2821,19.06,73654.3,1.01,-0.07,-0.07,0,*44
1497326533.27,2822,19.06,73654.8,1.01,0.29,0.29,0,*47
1497326534.48,2823,19.0,73652.3,1.01,0.41,0.41,0,*46
1497326535.63,2824,19.06,73664.8,1.01,0.43,0.43,0,*41
1497326536.87,2825,19.06,73674.3,1.03,0.41,0.51,0,*43
1497326538.08,2826,19.06,73678.8,1.03,0.43,0.41,0,*43
1497326539.26,2827,19.06,73680.0,1.01,0.41,0.43,0,*40
1497326540.51,2828,19.06,73674.5,1.03,0.55,0.55,0,*4F
1497326541.75,2829,19.06,73672.0,1.03,0.55,0.55,0,*4E
1497326542.97,2830,19.06,73678.3,1.03,0.51,0.43,0,*45
1497326544.21,2831,19.06,73688.0,1.03,0.55,0.51,0,*43
1497326545.4,2832,19.06,73694.8,1.03,0.43,0.43,0,*44
1497326546.63,2833,19.06,73694.0,1.03,0.13,0.13,0,*45
1497326547.82,2834,19.06,73692.3,1.03,-0.07,-0.07,0,*42
1497326549.05,2835,19.06,73698.5,1.03,0.13,0.13,0,*43
1497326550.23,2836,19.06,73694.5,1.03,0.05,0.01,0,*44
1497326551.44,2837,19.06,73678.8,1.03,-0.11,-0.11,0,*41
1497326552.67,2838,19.06,73680.8,1.03,0.17,0.17,0,*4E
1497326553.91,2839,19.06,73684.3,1.03,0.25,0.25,0,*4F
1497326555.12,2840,19.06,73690.3,1.01,0.25,0.25,0,*43
1497326556.35,2841,19.06,73684.8,1.03,0.17,0.13,0,*44
1497326557.54,2842,19.06,73676.8,1.03,-0.07,0.05,0,*6C
1497326558.73,2843,19.06,73676.5,1.03,0.05,0.05,0,*42
1497326559.89,2844,19.06,73674.5,1.01,0.05,0.05,0,*47
1497326561.1,2845,19.06,73670.5,1.01,0.17,0.13,0,*42
1497326562.32,2846,19.06,73664.3,1.03,0.17,0.17,0,*47
1497326563.51,2847,19.06,73656.3,1.01,0.05,0.17,0,*77
1497326564.72,2848,19.06,73654.8,1.01,0.13,0.13,0,*4B
1497326565.92,2849,19.06,73660.5,1.01,0.29,0.33,0,*41
1497326567.16,2850,19.0,73672.0,1.03,0.41,0.41,0,*40
1497326568.32,2851,19.06,73690.3,1.01,0.43,0.43,0,*43
1497326569.53,2852,19.06,73680.3,1.01,0.25,0.25,0,*40
1497326570.75,2853,19.06,73682.3,1.03,-0.29,-0.23,0,*49
1497326571.95,2854,19.06,73672.8,1.01,-0.23,-0.33,0,*47
1497326573.14,2855,19.06,73680.0,1.01,-0.11,-0.11,0,*47
1497326574.37,2856,19.06,73678.3,1.03,0.13,0.13,0,*46
1497326575.55,2857,19.0,73678.8,1.01,-0.07,-0.11,0,*72
1497326576.78,2858,19.06,73686.8,0.99,0.21,0.13,0,*7B
1497326577.99,2859,19.06,73682.3,0.99,-0.11,-0.15,0,*7F
1497326579.18,2860,19.06,73686.5,0.97,-0.11,-0.15,0,*7B
1497326580.38,2861,19.06,73690.3,0.99,-0.15,-0.15,0,*70
1497326581.59,2862,19.06,73680.0,0.99,-0.45,-0.45,0,*73
1497326582.79,2863,19.06,73680.5,0.99,-0.45,-0.45,0,*72
1497326583.97,2864,19.06,73674.8,0.97,-0.57,-0.57,0,*7B
1497326585.14,2865,19.06,73662.0,0.97,-0.49,-0.37,0,*73
1497326586.32,2866,19.06,73658.8,0.93,-0.37,-0.29,0,*72
1497326587.48,2867,19.06,73660.0,0.93,-0.07,-0.03,0,*78
1497326588.69,2868,19.06,73662.0,0.93,0.17,0.17,0,*73
1497326589.92,2869,19.06,73660.8,0.91,0.17,0.25,0,*71
1497326591.1,2870,19.06,73664.3,0.93,0.37,0.43,0,*79
1497326592.31,2871,19.06,73660.5,0.97,0.37,0.41,0,*7E
1497326593.52,2872,19.06,73668.3,0.97,0.51,0.51,0,*7C
1497326594.73,2873,19.0,73668.3,0.97,0.59,0.59,0,*7D
1497326595.94,2874,19.06,73672.8,0.97,0.63,0.71,0,*79
1497326597.18,2875,19.06,73674.5,0.99,0.63,0.71,0,*76
1497326598.39,2876,19.0,73676.0,0.97,0.59,0.63,0,*71
1497326599.6,2877,19.06,73678.0,0.97,0.59,0.59,0,*79
1497326600.84,2878,19.06,73676.3,0.99,0.59,0.59,0,*78
1497326602.08,2879,19.06,73676.8,0.99,0.51,0.59,0,*71
1497326603.32,2880,19.06,73680.8,0.99,0.59,0.59,0,*7F
1497326604.56,2881,19.06,73676.8,0.99,0.59,0.59,0,*7E
1497326605.76,2882,19.06,73684.8,1.01,0.67,0.67,0,*4D
1497326606.98,2883,19.06,73688.0,1.01,0.79,0.79,0,*4C
1497326608.19,2884,19.06,73690.0,1.01,0.67,0.75,0,*48
1497326609.43,2885,19.06,73688.5,1.03,0.55,0.55,0,*48
1497326610.67,2886,19.06,73682.0,1.03,0.51,0.51,0,*4B
1497326611.89,2887,19.06,73690.0,1.01,0.51,0.55,0,*4C
1497326613.13,2888,19.06,73686.3,1.03,0.51,0.55,0,*41
1497326614.38,2889,19.0,73682.5,1.03,0.55,0.51,0,*40
1497326615.62,2890,19.06,73680.5,1.03,0.55,0.63,0,*49
1497326616.85,2891,19.0,73684.0,1.03,0.63,0.63,0,*4D
1497326618.08,2892,19.06,73694.5,1.03,0.63,0.63,0,*4E
1497326619.32,2893,19.06,73700.8,1.03,0.63,0.55,0,*4A
1497326620.54,2894,19.06,73710.3,1.05,0.59,0.59,0,*4E
1497326621.74,2895,19.06,73700.5,1.05,0.33,0.33,0,*4F
1497326622.93,2896,19.06,73694.8,1.03,0.05,0.01,0,*4E
1497326624.13,2897,19.06,73698.8,1.03,-0.29,-0.33,0,*40
1497326625.3,2898,19.06,73692.8,1.03,0.01,0.01,0,*44
1497326626.54,2899,19.06,73700.8,1.03,0.29,0.25,0,*49
1497326627.77,2900,19.06,73694.8,1.03,0.25,0.25,0,*44
1497326628.93,2901,19.06,73694.3,1.01,0.05,0.05,0,*47
1497326630.12,2902,19.06,73696.0,1.01,-0.11,-0.11,0,*44
1497326631.33,2903,19.06,73692.8,1.03,-0.33,-0.41,0,*42
1497326632.51,2904,19.0,73686.3,1.01,-0.53,-0.45,0,*45
1497326633.68,2905,19.06,73682.0,1.01,-0.53,-0.57,0,*47
1497326634.86,2906,19.06,73680.8,1.01,-0.45,-0.45,0,*40
1497326636.11,2907,19.06,73686.3,0.99,-0.23,-0.27,0,*75
1497326637.32,2908,19.06,73684.3,0.99,0.13,0.09,0,*45
1497326638.48,2909,19.06,73686.8,0.97,0.09,0.09,0,*71
1497326639.64,2910,19.06,73688.3,0.97,0.01,-0.03,0,*56
1497326640.82,2911,19.06,73682.5,0.97,-0.03,-0.11,0,*4B
1497326641.97,2912,19.06,73682.5,0.97,0.01,0.01,0,*7B
1497326643.18,2913,19.06,73682.8,0.97,0.21,0.13,0,*7B
1497326644.42,2914,19.06,73682.3,0.99,0.21,0.21,0,*73
1497326645.63,2915,19.06,73684.8,0.97,0.29,0.29,0,*7C
1497326646.84,2916,19.06,73680.8,0.97,0.29,0.29,0,*7F
1497326648.05,2917,19.06,73680.8,0.97,0.29,0.25,0,*72
1497326649.25,2918,19.0,73674.0,0.97,0.29,0.25,0,*7D
1497326650.46,2919,19.0,73672.3,0.97,0.41,0.41,0,*70
1497326651.7,2920,19.06,73678.8,0.99,0.47,0.47,0,*74
1497326652.91,2921,19.0,73668.8,0.97,0.25,0.29,0,*77
1497326654.12,2922,19.06,73664.5,0.97,0.29,0.29,0,*78
1497326655.33,2923,19.0,73664.5,0.97,0.37,0.37,0,*79
1497326656.57,2924,19.06,73672.3,0.99,0.41,0.47,0,*76
1497326657.81,2925,19.06,73684.8,0.99,0.59,0.59,0,*71
1497326659.03,2926,19.06,73682.8,1.01,0.55,0.55,0,*42
1497326660.27,2927,19.0,73678.8,0.99,0.47,0.47,0,*73
1497326661.51,2928,19.06,73682.8,0.99,0.63,0.63,0,*7C
1497326662.75,2929,19.06,73690.5,0.99,0.83,0.87,0,*79
1497326663.98,2930,19.0,73688.5,1.01,0.91,0.91,0,*45
1497326665.17,2931,19.0,73698.0,1.03,0.97,1.01,0,*78
1497326666.35,2932,19.0,73698.0,1.01,1.05,1.05,0,*47
1497326667.55,2933,19.06,73698.5,1.03,1.05,1.05,0,*44
1497326668.74,2934,19.0,73698.0,1.03,0.97,0.97,0,*43
1497326669.98,2935,19.06,73696.3,1.03,0.51,0.51,0,*42
1497326671.19,2936,19.06,73694.5,1.05,0.37,0.37,0,*47
1497326672.41,2937,19.06,73698.0,1.05,0.55,0.55,0,*46
1497326673.6,2938,19.06,73698.8,1.05,0.43,0.47,0,*4D
1497326674.76,2939,19.06,73698.5,1.05,0.05,0.09,0,*44
1497326675.93,2940,19.06,73694.5,1.05,-0.03,0.05,0,*6D
1497326677.11,2941,19.06,73696.0,1.05,0.05,0.17,0,*74
1497326678.33,2942,19.0,73688.5,1.05,0.29,0.21,0,*4C
1497326679.52,2943,19.06,73694.0,1.05,0.37,0.43,0,*46
1497326680.73,2944,19.06,73696.3,1.07,0.37,0.43,0,*43
1497326681.94,2945,19.06,73692.8,1.05,0.37,0.37,0,*43
1497326683.15,2946,19.0,73690.8,1.05,0.33,0.33,0,*40
1497326684.36,2947,19.0,73690.3,1.05,0.17,0.17,0,*41
1497326685.54,2948,19.0,73684.3,1.05,-0.15,-0.15,0,*4E
1497326686.72,2949,19.0,73680.5,1.03,0.01,0.01,0,*49
1497326687.95,2950,19.0,73682.8,1.03,0.13,0.13,0,*41
1497326689.18,2951,19.06,73684.5,1.03,0.17,0.17,0,*40
1497326690.41,2952,19.0,73686.8,1.03,0.17,0.13,0,*47
1497326691.6,2953,19.0,73694.3,1.03,-0.07,-0.07,0,*42
1497326692.8,2954,19.06,73702.3,1.01,-0.23,-0.19,0,*4E
1497326693.97,2955,19.0,73702.3,1.01,0.05,0.05,0,*46
1497326695.14,2956,19.0,73696.3,1.01,-0.07,-0.07,0,*45
1497326696.32,2957,19.0,73692.3,1.01,-0.19,-0.19,0,*44
1497326697.5,2958,19.0,73700.3,1.01,-0.11,-0.11,0,*4B
1497326698.67,2959,19.06,73702.0,1.01,-0.07,-0.07,0,*4A
1497326699.92,2960,19.06,73704.0,0.99,-0.23,-0.27,0,*74
1497326701.15,2961,19.06,73704.8,0.97,-0.27,-0.27,0,*7F
1497326702.35,2962,19.0,73700.5,0.99,-0.15,-0.15,0,*72
1497326703.53,2963,19.06,73700.8,0.97,-0.03,-0.11,0,*4E
1497326704.7,2964,19.0,73702.5,0.97,0.09,-0.03,0,*5D
1497326705.9,2965,19.06,73696.3,0.97,0.13,0.13,0,*7B
1497326707.08,2966,19.0,73694.8,0.97,-0.37,-0.33,0,*7C
1497326708.3,2967,19.0,73690.3,0.97,-0.27,-0.23,0,*7D
1497326709.54,2968,19.06,73700.8,0.99,0.13,0.21,0,*79
1497326710.75,2969,19.06,73698.3,0.97,0.29,0.29,0,*77
1497326711.96,2970,19.06,73696.0,0.97,0.37,0.25,0,*7C
1497326713.17,2971,19.06,73684.0,0.97,0.25,0.25,0,*7E
1497326714.4,2972,19.06,73684.8,0.99,0.29,0.25,0,*7F
1497326715.58,2973,19.06,73686.8,0.97,0.13,0.09,0,*47
1497326716.76,2974,19.0,73690.8,0.97,-0.33,-0.33,0,*7B
1497326717.98,2975,19.0,73690.5,0.97,-0.27,-0.27,0,*7A
1497326719.15,2976,19.0,73688.5,0.93,0.05,-0.07,0,*52
1497326720.33,2977,19.0,73698.0,0.93,-0.15,-0.15,0,*7C
1497326721.55,2978,19.0,73692.0,0.93,-0.27,-0.27,0,*73
1497326722.72,2979,19.0,73686.5,0.93,-0.03,-0.03,0,*72
1497326723.93,2980,19.0,73682.0,0.97,0.37,0.37,0,*70
1497326725.14,2981,19.0,73684.0,0.97,0.59,0.71,0,*7B
1497326726.35,2982,19.0,73702.8,0.97,0.71,0.71,0,*72
1497326727.59,2983,19.06,73700.8,0.99,0.63,0.59,0,*74
1497326728.82,2984,19.06,73698.0,0.99,0.13,0.25,0,*7F
1497326730.02,2985,19.06,73684.3,0.99,-0.37,-0.37,0,*7B
1497326731.23,2986,19.0,73668.8,0.99,-0.45,-0.45,0,*78
1497326732.44,2987,19.06,73678.5,0.99,-0.77,-0.73,0,*7D
1497326733.61,2988,19.0,73642.0,0.97,-0.57,-0.61,0,*7D
1497326734.78,2989,19.06,73618.5,0.97,-0.49,-0.49,0,*79
1497326736.01,2990,19.0,73632.3,0.97,-0.27,-0.23,0,*75
1497326737.22,2991,19.06,73656.8,0.97,0.25,0.25,0,*70
1497326738.43,2992,19.0,73648.5,0.97,0.59,0.63,0,*7A
1497326739.64,2993,19.06,73672.3,0.93,0.71,0.71,0,*76
1497326740.88,2994,19.0,73670.3,0.99,0.83,0.75,0,*72
1497326742.13,2995,19.0,73684.3,0.99,0.87,0.87,0,*7A
1497326743.37,2996,19.06,73684.3,0.99,0.87,0.87,0,*79
1497326744.61,2997,19.06,73676.0,0.99,0.47,0.47,0,*78
1497326745.82,2998,19.0,73682.3,1.01,0.63,0.63,0,*47
1497326747.06,2999,19.0,73684.0,1.03,0.67,0.75,0,*47
1497326748.3,3000,19.0,73690.3,1.03,0.79,0.79,0,*4C
1497326749.47,3001,19.06,73694.5,1.01,1.05,1.01,0,*4B
1497326750.71,3002,19.0,73688.5,1.03,0.79,0.79,0,*4E
1497326751.95,3003,19.0,73682.0,1.03,0.41,0.33,0,*4A
1497326753.18,3004,19.0,73678.8,1.03,0.33,0.41,0,*4D
1497326754.41,3005,19.0,73682.3,1.03,0.63,0.63,0,*49
1497326755.62,3006,19.06,73696.3,1.05,0.83,0.95,0,*4B
1497326756.87,3007,19.0,73684.8,1.03,0.87,0.87,0,*4B
1497326758.11,3008,19.0,73688.5,1.03,0.79,0.91,0,*42
1497326759.34,3009,19.0,73692.5,1.05,0.91,0.91,0,*43
1497326760.59,3010,19.0,73684.0,1.07,0.79,0.71,0,*41
1497326761.84,3011,19.0,73682.3,1.07,0.79,0.83,0,*4D
1497326763.06,3012,19.0,73692.3,1.05,0.83,0.83,0,*49
1497326764.31,3013,19.06,73688.8,1.07,0.91,0.91,0,*4A
1497326765.56,3014,19.0,73684.8,1.07,0.79,0.79,0,*4D
1497326766.76,3015,19.0,73684.8,1.05,0.67,0.67,0,*4E
1497326768.0,3016,19.0,73684.8,1.09,0.75,0.75,0,*41
1497326769.25,3017,19.0,73684.3,1.07,0.79,0.79,0,*4E
1497326770.5,3018,19.0,73686.0,1.07,0.79,0.83,0,*44
1497326771.74,3019,19.0,73686.8,1.07,0.59,0.67,0,*4D
1497326772.99,3020,19.0,73688.5,1.07,0.55,0.55,0,*4A
1497326774.24,3021,19.0,73692.8,1.07,0.47,0.47,0,*4B
1497326775.48,3022,19.0,73686.5,1.07,0.37,0.37,0,*48
1497326776.72,3023,19.0,73694.5,1.09,0.59,0.59,0,*47
1497326777.95,3024,19.0,73696.5,1.09,0.37,0.37,0,*40
1497326779.19,3025,19.06,73700.0,1.07,0.33,0.37,0,*4B
1497326780.42,3026,19.0,73698.0,1.09,0.33,0.13,0,*40
1497326781.67,3027,19.0,73676.8,1.07,0.21,0.21,0,*4D
1497326782.91,3028,19.06,73686.5,1.07,0.33,0.37,0,*46
1497326784.07,3029,19.06,73690.3,1.05,-0.03,0.05,0,*6A
1497326785.31,3030,19.06,73694.3,1.07,0.29,0.33,0,*40
1497326786.55,3031,19.0,73690.8,1.07,0.37,0.37,0,*4A
1497326787.76,3032,19.0,73680.3,1.05,0.33,0.17,0,*4D
1497326788.93,3033,19.0,73674.8,1.05,-0.03,-0.07,0,*4E
1497326790.11,3034,19.06,73676.5,1.05,-0.15,-0.15,0,*4D
1497326791.3,3035,19.0,73672.5,1.05,-0.15,-0.15,0,*4C
1497326792.5,3036,19.0,73666.8,1.03,-0.19,-0.33,0,*41
1497326793.69,3037,19.0,73672.3,1.01,-0.19,-0.11,0,*42
1497326794.91,3038,19.0,73670.5,1.01,-0.23,-0.23,0,*45
1497326796.09,3039,19.0,73674.5,1.01,-0.07,-0.11,0,*73
1497326797.29,3040,19.06,73682.0,1.03,-0.29,-0.29,0,*48
1497326798.47,3041,19.0,73686.5,1.01,-0.19,-0.19,0,*4B
1497326799.65,3042,19.0,73686.5,1.01,-0.19,-0.19,0,*48
1497326800.9,3043,19.0,73680.0,0.99,-0.27,-0.27,0,*79
1497326802.11,3044,19.0,73668.3,0.99,-0.57,-0.57,0,*7E
1497326803.28,3045,19.0,73676.3,0.97,-0.73,-0.61,0,*72
1497326804.46,3046,19.0,73680.0,0.97,-0.37,-0.33,0,*76
1497326805.69,3047,19.0,73678.0,0.97,-0.23,-0.23,0,*73
1497326806.84,3048,19.06,73682.0,0.97,0.01,0.01,0,*7C
1497326808.05,3049,19.0,73672.8,0.97,0.21,0.21,0,*7D
1497326809.26,3050,19.06,73686.3,0.97,0.25,0.25,0,*75
1497326810.47,3051,19.0,73686.0,0.97,0.37,0.37,0,*74
1497326811.67,3052,19.0,73686.5,0.93,0.37,0.37,0,*73
1497326812.89,3053,19.0,73684.5,0.97,0.29,0.37,0,*79
1497326814.12,3054,19.06,73682.8,0.99,0.37,0.37,0,*7F
1497326815.36,3055,19.0,73692.5,0.99,0.25,0.29,0,*72
1497326816.59,3056,19.0,73692.8,0.99,0.41,0.41,0,*7D
1497326817.8,3057,19.0,73688.3,0.97,0.41,0.37,0,*73
1497326819.04,3058,19.06,73698.0,0.99,0.25,0.25,0,*73
1497326820.25,3059,19.0,73698.3,0.97,0.21,0.21,0,*7C
1497326821.49,3060,19.06,73696.3,0.99,0.29,0.37,0,*77
1497326822.7,3061,19.0,73700.8,0.97,0.25,0.29,0,*7B
1497326823.85,3062,19.0,73704.3,0.97,0.01,0.01,0,*74
1497326825.03,3063,19.0,73696.0,0.97,-0.03,-0.15,0,*42
1497326826.25,3064,19.0,73684.0,0.97,-0.23,-0.27,0,*76
1497326827.43,3065,19.0,73680.0,0.97,-0.03,-0.15,0,*44
1497326828.6,3066,19.0,73680.0,0.97,-0.11,-0.03,0,*43
1497326829.78,3067,19.0,73686.8,0.93,-0.53,-0.49,0,*7E
1497326830.96,3068,19.0,73674.8,0.93,-0.53,-0.53,0,*7A
1497326832.16,3069,19.0,73672.3,0.91,-0.37,-0.29,0,*76
1497326833.37,3070,19.0,73668.3,0.91,-0.19,-0.19,0,*71
1497326834.6,3071,19.0,73676.0,0.91,0.17,0.17,0,*70
1497326835.84,3072,19.0,73680.5,0.91,0.21,0.21,0,*73
1497326837.07,3073,19.06,73676.3,0.91,0.37,0.37,0,*72
1497326838.31,3074,19.0,73674.0,0.91,0.25,0.25,0,*75
1497326839.51,3075,19.0,73672.8,0.93,0.33,0.25,0,*71
1497326840.75,3076,19.0,73680.0,0.91,0.21,0.21,0,*77
1497326841.95,3077,19.06,73682.8,0.91,-0.03,-0.03,0,*76
1497326843.13,3078,19.0,73680.3,0.93,-0.15,-0.15,0,*7B
1497326844.34,3079,19.0,73692.8,0.91,-0.15,-0.15,0,*78
1497326845.55,3080,19.0,73696.5,0.91,-0.37,-0.41,0,*7F
1497326846.75,3081,19.0,73696.0,0.91,-0.19,-0.19,0,*7F
1497326847.95,3082,19.0,73696.0,0.91,-0.03,-0.03,0,*7C
1497326849.14,3083,19.06,73698.8,0.91,0.05,-0.03,0,*56
1497326850.33,3084,19.0,73698.5,0.91,0.09,0.09,0,*7A
1497326851.49,3085,19.06,73694.0,0.93,0.09,0.09,0,*79
1497326852.68,3086,19.0,73684.5,0.91,-0.03,-0.03,0,*78
1497326853.87,3087,19.06,73684.8,0.91,0.09,0.09,0,*79
1497326855.1,3088,19.0,73682.3,0.91,0.17,0.17,0,*76
1497326856.33,3089,19.0,73682.5,0.91,0.17,0.17,0,*77
1497326857.52,3090,19.0,73684.3,0.91,0.09,0.09,0,*7F
1497326858.75,3091,19.0,73682.3,0.91,0.17,0.17,0,*7E
1497326859.96,3092,19.0,73682.3,0.91,0.17,0.09,0,*42
1497326861.14,3093,19.0,73692.0,0.91,0.09,0.09,0,*7C
1497326862.38,3094,19.0,73694.3,0.91,0.17,0.17,0,*7B
1497326863.59,3095,19.0,73686.8,0.91,0.17,0.05,0,*49
1497326864.78,3096,19.0,73686.5,0.91,-0.03,0.05,0,*52
1497326866.01,3097,19.0,73696.3,0.91,0.17,0.17,0,*78
1497326867.24,3098,19.06,73700.5,0.91,0.17,0.17,0,*77
1497326868.48,3099,19.0,73696.3,0.91,0.25,0.21,0,*72
1497326869.72,3100,19.0,73688.3,0.91,0.21,0.17,0,*72
1497326870.9,3101,19.0,73670.3,0.91,0.05,0.05,0,*76
1497326872.09,3102,19.0,73684.0,0.91,0.09,0.09,0,*75
1497326873.28,3103,19.0,73680.8,0.91,0.09,0.09,0,*74
1497326874.47,3104,19.0,73678.8,0.91,-0.03,0.05,0,*58
1497326875.66,3105,19.0,73674.0,0.91,0.05,-0.03,0,*59
1497326876.84,3106,19.0,73682.0,0.89,-0.07,-0.11,0,*4F
1497326878.01,3107,19.0,73680.5,0.89,-0.11,-0.07,0,*4E
1497326879.2,3108,19.0,73674.5,0.91,-0.03,-0.03,0,*7F
1497326880.44,3109,19.0,73674.0,0.91,0.17,0.17,0,*7E
1497326881.65,3110,19.0,73668.5,0.91,0.09,0.21,0,*4C
1497326882.84,3111,19.0,73666.5,0.91,0.05,0.09,0,*7B
1497326884.07,3112,19.0,73670.0,0.91,0.17,0.21,0,*71
1497326885.29,3113,19.0,73670.0,0.89,0.29,0.21,0,*74
1497326886.5,3114,19.06,73668.3,0.91,0.37,0.43,0,*71
1497326887.74,3115,19.0,73662.0,0.91,0.25,0.21,0,*77
1497326888.97,3116,19.0,73666.5,0.91,0.17,0.21,0,*75
1497326890.19,3117,19.0,73672.3,0.93,0.47,0.47,0,*73
1497326891.4,3118,19.0,73668.3,0.91,0.43,0.47,0,*7A
1497326892.64,3119,19.06,73676.5,0.91,0.47,0.47,0,*7F
1497326893.87,3120,19.0,73686.5,0.91,0.59,0.67,0,*78
1497326895.09,3121,19.0,73690.8,0.93,0.55,0.55,0,*76
1497326896.31,3122,19.0,73696.5,0.93,0.55,0.59,0,*79
1497326897.52,3123,19.0,73696.3,0.93,0.59,0.59,0,*74
1497326898.71,3124,19.0,73690.5,0.93,0.43,0.47,0,*77
1497326899.89,3125,19.0,73676.3,0.93,0.09,0.17,0,*4D
1497326901.05,3126,19.0,73680.5,0.93,0.05,-0.03,0,*5A
1497326902.25,3127,19.0,73686.8,0.93,0.17,0.25,0,*71
1497326903.46,3128,19.06,73678.5,0.93,0.33,0.37,0,*7B
1497326904.67,3129,19.0,73676.3,0.93,0.25,0.33,0,*79
1497326905.9,3130,19.0,73676.8,0.91,0.21,0.25,0,*70
1497326907.11,3131,19.0,73682.5,0.93,0.21,0.17,0,*72
1497326908.32,3132,19.0,73684.0,0.93,0.17,0.17,0,*74
1497326909.52,3133,19.0,73686.0,0.93,0.37,0.33,0,*71
1497326910.7,3134,19.0,73684.5,0.93,0.43,0.55,0,*75
1497326911.92,3135,19.0,73680.3,0.93,0.47,0.47,0,*73
1497326913.13,3136,19.0,73682.0,0.97,0.21,0.21,0,*74
1497326914.35,3137,19.0,73678.8,0.97,0.21,0.21,0,*75
1497326915.55,3138,19.0,73676.8,0.97,0.37,0.41,0,*7B
1497326916.79,3139,19.0,73680.0,0.99,0.21,0.25,0,*71
1497326918.0,3140,19.0,73680.5,0.97,0.21,0.25,0,*71
1497326919.23,3141,19.06,73686.5,0.99,0.41,0.41,0,*7A
1497326920.44,3142,19.0,73682.5,0.97,0.47,0.51,0,*70
1497326921.66,3143,19.0,73676.8,0.97,0.51,0.51,0,*76
1497326922.9,3144,19.0,73664.3,0.99,0.41,0.51,0,*7E
1497326924.13,3145,19.0,73662.5,0.99,0.63,0.63,0,*7E
1497326925.35,3146,19.0,73658.0,0.97,0.83,0.83,0,*73
1497326926.59,3147,19.06,73666.8,0.99,0.83,0.87,0,*78
1497326927.81,3148,19.0,73670.3,0.97,0.87,0.87,0,*7D
1497326929.06,3149,19.0,73688.3,0.99,0.87,0.87,0,*72
1497326930.29,3150,19.06,73696.0,0.99,0.29,0.29,0,*7A
1497326931.5,3151,19.0,73680.5,0.99,-0.45,-0.37,0,*7E
1497326932.73,3152,19.0,73680.0,0.99,-0.27,-0.33,0,*7D
1497326933.91,3153,19.0,73682.5,0.99,0.01,0.01,0,*79
1497326935.14,3154,19.0,73674.5,0.99,0.63,0.63,0,*7E